Вернуться в каталог

COSMOS 2251 DEB

АктивенLEO
NORAD 38057·DEBRIS·🇷🇺 Russia

Запущен Jun 16, 1993 с Plesetsk Cosmodrome

Loading…

Ближайшие Пролёты (ближайшие 24 часа)

TLE

СвежийSource: Space-Track

Эпоха: Sep 13, 2026, 10:34 UTC

1 38057U 93036BRP 26256.44083774  .00001976  00000-0  77856-3 0  9991
2 38057  73.9987 299.1882 0139362  24.5882 336.1824 14.24622289638486

Отслеживайте COSMOS 2251 DEB в реальном времени с AllMySat

Download on the App Store